Flag for Mexico Weather past 2 weeks in Guadalajara, Jalisco, Mexico

Now
72 °F

Broken clouds.


Feels Like: 75 °F
Forecast: 64 / 77 °F
Wind: No wind

Location: Don Miguel / Guadalaj

Current Time: Sep 22, 2014 at 11:32:55 AM

Latest Report: Sep 22, 2014 at 10:50 AM


Visibility: 7 mi

Pressure: 30.21 "Hg

Humidity: 65%

Dew point: 59 °F

Location of GuadalajaraLocation

Historic Weather in Guadalajara — Graph

°F

Guadalajara temperature yesterday

Maximum temperature yesterday: 81 °F (at 3:49 PM)
Minimum temperature yesterday: 55 °F (at 5:49 AM)
Average temperature yesterday: 69 °F

Past Weeks' High & Low Weather Summary

 TemperatureHumidityPressure
High82 °F (Sep 10, 4:54 PM)94% (Sep 8, 3:54 AM)30.25 "Hg (Sep 8, 3:54 AM)
Low54 °F (Sep 20, 3:52 AM)42% (Sep 8, 3:55 PM)29.66 "Hg (Sep 12, 3:51 PM)
Average68 °F73%30.02 "Hg
* Reported Sep 7 9:58 AM — Sep 22 9:50 AM, Guadalajara, Weather by CustomWeather, © 2014

Note: Actual official high and low records may vary slightly from our data, if they occured in-between our weather recording intervals... More about our weather records

Advertising

Guadalajara weather history for previous 24 hours

 ConditionsComfort  
Time TempWeatherWind HumidityBarometerVisibility
9:50 AM
Sep 22
70 °FBroken clouds.No wind73%29.89 "Hg6 mi
8:53 AM66 °FPartly sunny.No wind83%30.20 "Hg5 mi
7:53 AM64 °FPassing clouds.No wind88%30.19 "Hg5 mi
6:58 AM64 °FMostly cloudy.No wind88%29.83 "Hg10 mi
5:53 AM64 °FMostly cloudy.No wind88%30.18 "Hg10 mi
4:52 AM64 °FMostly cloudy.No wind88%30.16 "Hg10 mi
3:56 AM64 °FPartly cloudy.No wind88%29.81 "Hg10 mi
2:52 AM64 °FPartly cloudy.3 mph88%30.18 "Hg10 mi
2:03 AM64 °FPartly cloudy.No wind88%30.19 "Hg10 mi
12:48 AM66 °FPartly cloudy.No wind83%29.92 "Hg10 mi
11:50 PM
Sep 21
66 °FMostly cloudy.3 mph83%30.19 "Hg10 mi
10:54 PM68 °FMostly cloudy.No wind78%30.18 "Hg10 mi
9:56 PM70 °FOvercast.No wind78%29.88 "Hg10 mi
8:45 PM68 °FCloudy.5 mph83%30.14 "Hg10 mi
7:50 PM68 °FMostly cloudy.12 mph73%30.11 "Hg8 mi
6:54 PM77 °FMostly cloudy.8 mph57%29.80 "Hg10 mi
5:49 PM81 °FPartly sunny.3 mph45%30.07 "Hg10 mi
4:54 PM81 °FBroken clouds.No wind42%30.07 "Hg10 mi
3:49 PM81 °FBroken clouds.No wind45%29.79 "Hg10 mi
2:56 PM79 °FPartly sunny.7 mph54%30.14 "Hg10 mi
1:55 PM77 °FPartly sunny.7 mph57%30.16 "Hg10 mi
12:50 PM77 °FBroken clouds.9 mph51%29.90 "Hg10 mi
11:52 AM75 °FBroken clouds.No wind54%30.22 "Hg8 mi
Weather by CustomWeather, © 2014

See weather overviewHow to use our weather pages